Regional Weather Roundup
Issued by NWS Sioux Falls, SD

Home | Current Version | Previous Version | Text Only | Print | Product List | Glossary On
Versions: 1 2 3 4 5 6 7 8 9 10 11 12 13 14 15 16 17 18 19 20 21 22 23 24 25 26 27 28 29 30 31 32 33 34 35 36 37 38 39 40 41 42 43 44 45 46 47 48 49 50
000
ASUS43 KFSD 231310
RWRFSD

WEATHER ROUNDUP FOR SE SOUTH DAKOTA/SW MINNESOTA/NW IOWA
NATIONAL WEATHER SERVICE SIOUX FALLS SD
700 AM CST SUN NOV 23 2014

NOTE: "FAIR" INDICATES FEW OR NO CLOUDS BELOW 12,000 FEET WITH NO
SIGNIFICANT WEATHER AND OR OBSTRUCTIONS TO VISIBILITY.


SDZ038>040-050-052>070-231400-
SOUTHEAST SOUTH DAKOTA

CITY           SKY/WX    TMP DP  RH WIND       PRES   REMARKS
CHAMBERLAIN    CLOUDY    38  35  87 W9        29.56R
HURON          CLOUDY    37  34  89 NW10      29.50R
MADISON        PTSUNNY   36  36 100 NW10      29.49R
MITCHELL       CLOUDY    41  36  82 NW12      29.51S
SIOUX FALLS    CLOUDY    40  37  89 NW13      29.48R
WINNER         PTSUNNY   42  32  67 NW16G24   29.58R
YANKTON        CLOUDY    43  32  65 NW18      29.51R
$$

MNZ071-072-080-081-089-090-097-098-231400-
SOUTHWEST MINNESOTA

CITY           SKY/WX    TMP DP  RH WIND       PRES   REMARKS
FAIRMONT       CLOUDY    50  46  87 S9        29.45S
JACKSON        CLOUDY    46  45  93 S8        29.45S FOG
LUVERNE        FOG       43  41  93 NW7       29.46S VSB 1/2
MARSHALL       CLOUDY    43  36  75 W13       29.46R
MONTEVIDEO     CLOUDY    37  36  93 SW3       29.46R
PIPESTONE      CLOUDY    39  37  93 NW8       29.45S
REDWOOD FALLS  CLOUDY    44  41  89 W8        29.43S
TRACY          CLOUDY    45  44  95 W7        29.45R
WINDOM         CLOUDY    48  46  93 SW10      29.43S FOG
WORTHINGTON    CLOUDY    46  45  93 SW7       29.45R VSB 1/2
$$

IAZ001>003-012>014-020>022-031-032-NEZ013-014-SDZ071-231400-
NORTHWEST IOWA

CITY           SKY/WX    TMP DP  RH WIND       PRES   REMARKS
CHEROKEE       CLOUDY    50  50 100 S7        29.45R
DENISON        CLOUDY    52  52 100 S10       29.46R
ESTHERVILLE    CLOUDY    49  48  97 SW8       29.44S FOG
LE MARS          N/A     50  50 100 SW6       29.45S FOG
ORANGE CITY    FOG       50  48  93 SW9       29.45R VSB 3/4
SHELDON        FOG       48  48 100 SW7       29.44R VSB 1/2
SIOUX CITY     CLOUDY    51  48  89 S3        29.46R
SPENCER        CLOUDY    50  48  93 SW7       29.45R FOG
STORM LAKE     CLOUDY    50  50 100 SW17G23   29.46R FOG
$$

ABBREVIATIONS USED IN REMARKS
   TC - TEMPERATURE IN CELSIUS
  WCI - WIND CHILL INDEX
   HX - HEAT INDEX
  VSB - VISIBILITY



USA.gov is the U.S. government's official web portal to all federal, state and local government web resources and services.